This demonstration page uses our WeatherBlox Daily Observations layout. Learn more.

Left ArrowRight Arrow

38.80484, -77.04692

Hourly Observations for May 12, 2015

Temp ( °F °C ) Dew Point ( °F °C ) Humidity (%) Winds ( mph kmh ) Pressure ( in mb ) Visibility ( mi km ) Precip ( " mm )
12:52 am 00:52 Mostly Cloudy 73 22.8 67 19.4 81 81 S 6 9 29.96 1015 10 16 N/A
1:52 am 01:52 Mostly Cloudy 73 22.8 67 19.4 81 81 S 7 11 29.93 1014 10 16 N/A
2:52 am 02:52 Partly Cloudy 72 22.2 66 18.9 82 82 WSW 5 7 29.92 1013 10 16 N/A
3:52 am 03:52 Mostly Cloudy 73 22.8 66 18.9 79 79 N N/A 29.91 1013 10 16 N/A
4:52 am 04:52 Mostly Cloudy 71 21.7 66 18.9 84 84 S 8 13 29.92 1013 10 16 N/A
5:52 am 05:52 Mostly Cloudy 71 21.7 66 18.9 84 84 SSW 6 9 29.94 1014 10 16 N/A
6:52 am 06:52 Mostly Cloudy 72 22.2 65 18.3 79 79 SSW 7 11 29.95 1014 10 16 N/A
7:52 am 07:52 Mostly Cloudy 74 23.3 66 18.9 76 76 SSW 6 9 29.96 1015 10 16 N/A
8:52 am 08:52 Mostly Cloudy 75 23.9 68 20 79 79 S 8 13 29.97 1015 10 16 N/A
9:52 am 09:52 Mostly Cloudy 78 25.6 69 20.6 74 74 S 8 13 29.96 1015 10 16 N/A
10:52 am 10:52 Mostly Cloudy 81 27.2 69 20.6 67 67 S 10 17 29.95 1014 10 16 N/A
11:52 am 11:52 Mostly Cloudy 86 30 63 17.2 46 46 W 13 20 29.95 1014 10 16 N/A
12:52 pm 12:52 Mostly Cloudy 85 29.4 62 16.7 46 46 WSW 15 24 29.93 1014 10 16 N/A
1:52 pm 13:52 Cloudy 88 31.1 63 17.2 43 43 W 10 17 29.91 1013 10 16 N/A
2:52 pm 14:52 Mostly Cloudy 88 31.1 62 16.7 42 42 WSW 12 19 29.88 1012 10 16 N/A
3:52 pm 15:52 Mostly Cloudy 89 31.7 59 15 36 36 WSW 12 19 29.85 1011 10 16 N/A
4:52 pm 16:52 Mostly Cloudy 88 31.1 59 15 38 38 WSW 10 17 29.84 1011 10 16 N/A
5:52 pm 17:52 Mostly Cloudy 88 31.1 56 13.3 34 34 WSW 10 17 29.84 1010 10 16 N/A
6:52 pm 18:52 Mostly Cloudy 87 30.6 58 14.4 37 37 WNW 9 15 29.84 1010 10 16 N/A
7:52 pm 19:52 Mostly Cloudy 86 30 47 8.3 26 26 WNW 14 22 29.86 1011 10 16 N/A
8:52 pm 20:52 Mostly Cloudy 84 28.9 46 7.8 27 27 WNW 14 22 29.89 1012 10 16 N/A
9:52 pm 21:52 Mostly Cloudy 81 27.2 46 7.8 29 29 WNW 16 26 29.93 1013 10 16 N/A
10:52 pm 22:52 Mostly Cloudy 79 26.1 42 5.6 27 27 NW 18 30 29.94 1014 10 16 N/A
11:52 pm 23:52 Cloudy 76 24.4 44 6.7 32 32 NW 22 35 29.97 1015 10 16 N/A

Powered by AerisWeather